Regional Weather Roundup
Issued by NWS

Home | Current Version | Previous Version | Graphics & Text | Print | Product List | Glossary On
Versions: 1 2 3 4 5 6 7 8 9 10 11 12 13 14 15 16 17 18 19 20 21 22 23 24 25 26 27 28 29 30 31 32 33 34 35 36 37 38 39 40 41 42 43 44 45 46 47 48 49 50
000
ASUS44 KMEG 260100
RWRTN
TENNESSEE HOURLY STATE WEATHER ROUNDUP
NATIONAL WEATHER SERVICE MEMPHIS TN
800 PM CDT SAT APR 25 2015

TNZ002-004-019-021-049-052-054-088>092-260200-
WEST TENNESSEE

CITY           SKY/WX    TMP DP  RH WIND       PRES   REMARKS
MEMPHIS INTL   PTCLDY    75  60  59 SW7       29.57R
NWS MEMPHIS      N/A     76 N/A N/A MISG        N/A
JACKSON        CLEAR     72  56  57 SW9       29.55R
DYERSBURG      PTCLDY    73  52  46 SW9G16    29.54R
UNION CITY     CLEAR     72  32  23 SW10      29.52R
PARIS          CLEAR     72  57  60 SW13      29.53R
LEXINGTON      CLEAR     73  54  49 SW8       29.54R
SAVANNAH       CLEAR     75  32  20 SW6       29.56R
$$

TNZ008-025-027-028-033-062-065-066-260200-
NORTH MIDDLE TENNESSEE

CITY           SKY/WX    TMP DP  RH WIND       PRES   REMARKS
NASHVILLE      PTCLDY    76  62  62 SW9G22    29.50R
CLARKSVILLE    CLEAR     75  55  49 W10G18    29.49R
COOKEVILLE     CLEAR     70  63  78 SW13      29.52R
CROSSVILLE     CLEAR     69  57  65 S8        29.57S
$$

TNZ061-075-076-078-094-096-097-260200-
SOUTH MIDDLE TENNESSEE

CITY           SKY/WX    TMP DP  RH WIND       PRES   REMARKS
FAYETTEVILLE   CLEAR     70  64  83 SW8       29.57S
TULLAHOMA      CLEAR     70  63  78 SW9       29.57S
WINCHESTER     CLEAR     70  64  83 SW5       29.58S
COLUMBIA       CLEAR     73  32  21 SW14      29.52R
SHELBYVILLE    CLEAR     72  66  83 S10       29.54S
$$

TNZ017-018-042-046-047-260200-
NORTHEAST TENNESSEE

CITY           SKY/WX    TMP DP  RH WIND       PRES   REMARKS
TRI CITIES     PTCLDY    62  56  80 CALM      29.56S
ELIZABETHTON   CLEAR     59  55  88 CALM      29.57R
$$

TNZ012-013-036-069-073-074-260200-
CENTRAL EAST TENNESSEE

CITY           SKY/WX    TMP DP  RH WIND       PRES   REMARKS
KNOXVILLE      PTCLDY    71  60  68 SW21      29.54S
OAK RIDGE      CLEAR     72  63  73 VRB3      29.55R
GATLINBURG     CLEAR     72  54  53 W8        29.52F
$$

TNZ083-085-099-260200-
SOUTHEAST TENNESSEE

CITY           SKY/WX    TMP DP  RH WIND       PRES   REMARKS
CHATTANOOGA    PTCLDY    73  64  73 S7        29.57F
$$

SKY/WX REPORTED AS FAIR MEANS FEW OR NO CLOUDS BELOW
12 THOUSAND FEET.




USA.gov is the U.S. government's official web portal to all federal, state and local government web resources and services.